KUIPER-00169 (65782 NORAD) Tracking and Keplerian Element Data

This shows tracking and keplerian element data for the satellite.

Feedback or suggestion? Click here.




ElementValue
Catalog65782
NameKUIPER-00169
Epoch Orbit451
Epoch Day354.25003472
Epoch Year2025
RAAN28.6097
Inclination51.8814
Eccentricity0.0004695
Argument of Perigee35.2958
Mean Anonmoly320.5111
Mean Motion15.23467086
Decay Rate-0.01014929
L11 65782U 25217W 25354.25003472 -.01014929 00000+0 -45620-1 0 9992
L22 65782 51.8814 28.6097 0004695 35.2958 320.5111 15.23467086 4510



Live tracking and technical data element details for KUIPER-00169 (NORAD 65782). KUIPER-00169 can be tracked NOW for your location showing map with azimuth and elevation plus other details from your city location.







IsCatalogInMostPopularTable: catalog: 65782, numindb: 7
Update: records affected: 1



GetName: 65782 KUIPER-00169

Hit Count: updated at: Tue, 21 Apr 2026 20:19:59 GMT